SQ5DCP-1 Weather Reports


Display with metric or nautical units.
time (UTC)temp
F
wind
direction
speed
MPH
gust
MPH
rain 1hr
in
rain 24hr
in
rain mn
in
humidity
%
barometer
mb
20260903220022 64 0.0 0.0 0.00 0.00 0.00 66 1016.3
20260903215517 64 0.0 0.0 0.00 0.00 0.00 66 1016.4
20260903215049 64 247 0.0 3.0 0.00 0.00 0.00 65 1016.4
20260903215015 64 247 0.0 3.0 0.00 0.00 0.00 65 1016.4
20260903214534 64 251 1.0 3.0 0.00 0.00 0.00 65 1016.4
20260903214032 64 241 1.0 2.0 0.00 0.00 0.00 65 1016.5
20260903213530 64 267 0.0 3.0 0.00 0.00 0.00 65 1016.5
20260903213028 64 0.0 0.0 0.00 0.00 0.00 65 1016.5
20260903212526 64 237 0.0 2.0 0.00 0.00 0.00 65 1016.5
20260903212025 65 246 0.0 2.0 0.00 0.00 0.00 65 1016.6
20260903211523 65 0.0 0.0 0.00 0.00 0.00 65 1016.5
20260903211021 65 226 0.0 2.0 0.00 0.00 0.00 65 1016.5
20260903210519 65 238 1.0 3.0 0.00 0.00 0.00 65 1016.7
20260903210017 65 262 1.0 3.0 0.00 0.00 0.00 65 1016.7
20260903205516 65 0.0 0.0 0.00 0.00 0.00 65 1016.6
20260903205034 65 260 1.0 2.0 0.00 0.00 0.00 65 1016.7
20260903204532 65 280 1.0 3.0 0.00 0.00 0.00 65 1016.7
20260903204030 65 249 1.0 2.0 0.00 0.00 0.00 65 1016.6
20260903203528 65 268 2.0 4.0 0.00 0.00 0.00 65 1016.6
20260903203026 65 267 1.0 4.0 0.00 0.00 0.00 65 1016.7
20260903202525 65 274 1.0 4.0 0.00 0.00 0.00 65 1016.7
20260903202022 65 285 2.0 4.0 0.00 0.00 0.00 65 1016.7
20260903201521 65 277 2.0 4.0 0.00 0.00 0.00 65 1016.6
20260903201019 65 276 2.0 7.0 0.00 0.00 0.00 64 1016.6
20260903200517 65 274 2.0 7.0 0.00 0.00 0.00 64 1016.7
20260903200035 65 272 2.0 4.0 0.00 0.00 0.00 64 1016.6
20260903195533 65 258 2.0 6.0 0.00 0.00 0.00 64 1016.7
20260903195032 65 257 3.0 4.0 0.00 0.00 0.00 64 1016.7
20260903194530 65 252 2.0 8.0 0.00 0.00 0.00 64 1016.7
20260903194028 65 244 2.0 3.0 0.00 0.00 0.00 64 1016.7
20260903193526 65 248 2.0 3.0 0.00 0.00 0.00 64 1016.8
20260903193024 65 243 2.0 4.0 0.00 0.00 0.00 64 1016.8
20260903192522 65 247 1.0 3.0 0.00 0.00 0.00 64 1016.8
20260903192020 65 249 2.0 4.0 0.00 0.00 0.00 64 1016.8
20260903191518 66 256 2.0 4.0 0.00 0.00 0.00 65 1016.9
20260903191049 66 245 1.0 4.0 0.00 0.00 0.00 64 1017.0
20260903191016 66 245 1.0 4.0 0.00 0.00 0.00 64 1017.0
20260903190534 66 238 1.0 3.0 0.00 0.00 0.00 64 1017.0
20260903190033 66 249 0.0 2.0 0.00 0.00 0.00 64 1017.0
20260903185531 66 0.0 0.0 0.00 0.00 0.00 64 1017.0
20260903185029 66 0.0 0.0 0.00 0.00 0.00 63 1016.9
20260903184527 66 246 0.0 2.0 0.00 0.00 0.00 63 1017.0
20260903184025 67 0.0 0.0 0.00 0.00 0.00 63 1016.9
20260903183523 67 0.0 0.0 0.00 0.00 0.00 62 1017.0
20260903183021 67 0.0 0.0 0.00 0.00 0.00 62 1017.0
20260903182519 67 0.0 0.0 0.00 0.00 0.00 62 1017.0
20260903182018 67 0.0 0.0 0.00 0.00 0.00 61 1017.0
20260903181515 68 0.0 0.0 0.00 0.00 0.00 61 1017.0
20260903181034 68 0.0 0.0 0.00 0.00 0.00 61 1017.0
20260903180532 68 0.0 0.0 0.00 0.00 0.00 60 1017.0
20260903180030 68 0.0 0.0 0.00 0.00 0.00 60 1016.9
20260903175528 68 0.0 0.0 0.00 0.00 0.00 60 1016.9
20260903175026 69 0.0 0.0 0.00 0.00 0.00 60 1016.9
20260903174525 69 0.0 0.0 0.00 0.00 0.00 59 1016.9
20260903174022 69 0.0 0.0 0.00 0.00 0.00 59 1016.9
20260903173521 69 0.0 0.0 0.00 0.00 0.00 59 1016.8
20260903173019 69 0.0 0.0 0.00 0.00 0.00 59 1016.7
20260903172517 69 0.0 0.0 0.00 0.00 0.00 58 1016.7
20260903172036 70 0.0 0.0 0.00 0.00 0.00 58 1016.7
20260903171533 70 0.0 0.0 0.00 0.00 0.00 57 1016.7
20260903171032 70 0.0 0.0 0.00 0.00 0.00 57 1016.7
20260903170530 70 0.0 0.0 0.00 0.00 0.00 56 1016.7
20260903170028 70 282 1.0 3.0 0.00 0.00 0.00 55 1016.6
20260903165526 70 288 2.0 6.0 0.00 0.00 0.00 55 1016.7
20260903165024 71 285 2.0 4.0 0.00 0.00 0.00 54 1016.7
20260903164522 71 279 3.0 8.0 0.00 0.00 0.00 54 1016.6
20260903164020 71 292 4.0 7.0 0.00 0.00 0.00 54 1016.7
20260903163518 71 287 3.0 6.0 0.00 0.00 0.00 54 1016.6
20260903163048 71 280 2.0 3.0 0.00 0.00 0.00 54 1016.6
20260903163016 71 280 2.0 3.0 0.00 0.00 0.00 54 1016.6
20260903162535 71 292 0.0 3.0 0.00 0.00 0.00 54 1016.6
20260903162033 71 0.0 0.0 0.00 0.00 0.00 53 1016.6
20260903161531 71 0.0 0.0 0.00 0.00 0.00 53 1016.6
20260903161029 71 288 1.0 3.0 0.00 0.00 0.00 53 1016.7
20260903160527 71 312 0.0 3.0 0.00 0.00 0.00 52 1016.6
20260903160026 72 286 3.0 7.0 0.00 0.00 0.00 52 1016.7
20260903155524 72 288 3.0 7.0 0.00 0.00 0.00 52 1016.7
20260903155022 72 291 3.0 6.0 0.00 0.00 0.00 52 1016.7
20260903154520 72 297 3.0 6.0 0.00 0.00 0.00 51 1016.8
20260903154018 72 298 4.0 8.0 0.00 0.00 0.00 51 1016.8
20260903153516 72 291 4.0 9.0 0.00 0.00 0.00 50 1016.8
20260903153034 72 280 4.0 8.0 0.00 0.00 0.00 51 1016.8
20260903152532 72 286 3.0 8.0 0.00 0.00 0.00 51 1016.9
20260903152031 72 287 4.0 9.0 0.00 0.00 0.00 51 1017.0
20260903151529 72 288 3.0 6.0 0.00 0.00 0.00 51 1017.0
20260903151027 72 287 3.0 8.0 0.00 0.00 0.00 50 1016.9
20260903150525 72 304 2.0 7.0 0.00 0.00 0.00 50 1017.1
20260903150023 72 294 2.0 8.0 0.00 0.00 0.00 51 1017.1
20260903145522 72 291 2.0 4.0 0.00 0.00 0.00 50 1017.2
20260903145020 73 307 4.0 8.0 0.00 0.00 0.00 50 1017.2
20260903144518 73 308 3.0 6.0 0.00 0.00 0.00 50 1017.2
20260903144016 73 300 2.0 6.0 0.00 0.00 0.00 50 1017.2
20260903143534 73 326 2.0 8.0 0.00 0.00 0.00 49 1017.2
20260903143033 73 307 4.0 9.0 0.00 0.00 0.00 48 1017.2
20260903142530 73 291 4.0 8.0 0.00 0.00 0.00 49 1017.2
20260903142028 73 279 4.0 10.0 0.00 0.00 0.00 49 1017.3
20260903141527 73 276 4.0 9.0 0.00 0.00 0.00 50 1017.3
20260903141024 73 291 2.0 6.0 0.00 0.00 0.00 51 1017.4
20260903140523 73 306 4.0 8.0 0.00 0.00 0.00 50 1017.3
20260903140021 73 286 4.0 7.0 0.00 0.00 0.00 50 1017.4
20260903135519 73 287 5.0 10.0 0.00 0.00 0.00 50 1017.5
20260903135049 73 314 4.0 8.0 0.00 0.00 0.00 50 1017.4
20260903135017 73 314 4.0 8.0 0.00 0.00 0.00 50 1017.4
20260903134535 73 282 3.0 8.0 0.00 0.00 0.00 51 1017.4
20260903134033 73 297 3.0 8.0 0.00 0.00 0.00 51 1017.4
20260903133531 73 332 0.0 6.0 0.00 0.00 0.00 51 1017.4
20260903133030 73 281 3.0 7.0 0.00 0.00 0.00 50 1017.5
20260903132527 73 294 4.0 11.0 0.00 0.00 0.00 49 1017.5
20260903132025 73 275 4.0 8.0 0.00 0.00 0.00 50 1017.6
20260903131524 73 280 4.0 11.0 0.00 0.00 0.00 49 1017.6
20260903131022 73 273 6.0 9.0 0.00 0.00 0.00 49 1017.7
20260903130520 73 291 4.0 13.0 0.00 0.00 0.00 49 1017.6
20260903130018 73 289 7.0 14.0 0.00 0.00 0.00 49 1017.7
20260903125517 73 281 5.0 14.0 0.00 0.00 0.00 51 1017.8
20260903125035 73 292 3.0 10.0 0.00 0.00 0.00 52 1017.7
20260903124533 72 324 4.0 8.0 0.00 0.00 0.00 51 1017.9
20260903124031 72 285 4.0 11.0 0.00 0.00 0.00 53 1017.9
20260903123529 72 298 4.0 9.0 0.00 0.00 0.00 53 1017.9
20260903123027 71 283 4.0 8.0 0.00 0.00 0.00 53 1018.0
20260903122525 71 298 4.0 8.0 0.00 0.00 0.00 52 1018.0
20260903122023 72 289 3.0 7.0 0.00 0.00 0.00 52 1018.0
20260903121521 72 318 1.0 7.0 0.00 0.00 0.00 54 1018.0
20260903121019 71 294 2.0 6.0 0.00 0.00 0.00 54 1018.1
20260903120518 72 286 3.0 10.0 0.00 0.00 0.00 54 1018.1
20260903120049 72 290 4.0 7.0 0.00 0.00 0.00 53 1018.1
20260903120016 72 290 4.0 7.0 0.00 0.00 0.00 53 1018.1
20260903115534 72 297 4.0 9.0 0.00 0.00 0.00 53 1018.2
20260903115032 72 323 4.0 8.0 0.00 0.00 0.00 52 1018.2
20260903114530 72 284 4.0 9.0 0.00 0.00 0.00 52 1018.2
20260903114028 72 307 4.0 13.0 0.00 0.00 0.00 52 1018.3
20260903113526 72 285 4.0 8.0 0.00 0.00 0.00 51 1018.4
20260903113024 73 312 5.0 9.0 0.00 0.00 0.00 51 1018.4
20260903112522 73 315 4.0 8.0 0.00 0.00 0.00 51 1018.4
20260903112020 73 267 4.0 10.0 0.00 0.00 0.00 52 1018.4
20260903111518 73 283 2.0 9.0 0.00 0.00 0.00 52 1018.5
20260903111016 73 287 5.0 13.0 0.00 0.00 0.00 52 1018.5
20260903110535 73 289 3.0 9.0 0.00 0.00 0.00 52 1018.5
20260903110033 73 275 4.0 10.0 0.00 0.00 0.00 52 1018.6
20260903105531 73 281 3.0 10.0 0.00 0.00 0.00 53 1018.7
20260903105029 72 283 6.0 10.0 0.00 0.00 0.00 53 1018.7
20260903104528 72 289 4.0 11.0 0.00 0.00 0.00 53 1018.9
20260903104026 72 0 3.0 9.0 0.00 0.00 0.00 53 1018.9
20260903103523 71 2 4.0 11.0 0.00 0.00 0.00 54 1019.0
20260903103022 72 316 6.0 13.0 0.00 0.00 0.00 52 1019.1
20260903102520 72 334 5.0 11.0 0.00 0.00 0.00 53 1019.0
20260903102018 71 297 5.0 10.0 0.00 0.00 0.00 54 1019.1
20260903101516 71 305 3.0 8.0 0.00 0.00 0.00 55 1019.1
20260903101034 71 302 3.0 6.0 0.00 0.00 0.00 56 1019.1
20260903100533 71 264 4.0 11.0 0.00 0.00 0.00 56 1019.1
20260903100031 71 280 5.0 11.0 0.00 0.00 0.00 55 1019.1
20260903095529 71 270 5.0 10.0 0.00 0.00 0.00 57 1019.2
20260903095027 70 297 4.0 10.0 0.00 0.00 0.00 58 1019.3
20260903094525 70 302 3.0 8.0 0.00 0.00 0.00 59 1019.3
20260903094023 70 304 3.0 8.0 0.00 0.00 0.00 58 1019.4
20260903093522 70 279 3.0 7.0 0.00 0.00 0.00 58 1019.4
20260903093020 70 281 4.0 9.0 0.00 0.00 0.00 59 1019.5
20260903092520 69 280 4.0 10.0 0.00 0.00 0.00 61 1019.4
20260903092048 69 297 3.0 4.0 0.00 0.00 0.00 59 1019.5
20260903092016 69 297 3.0 4.0 0.00 0.00 0.00 59 1019.5
20260903091535 69 288 5.0 14.0 0.00 0.00 0.00 60 1019.6
20260903091033 69 310 3.0 7.0 0.00 0.00 0.00 60 1019.5
20260903090531 68 283 3.0 7.0 0.00 0.00 0.00 61 1019.5
20260903090029 68 296 2.0 6.0 0.00 0.00 0.00 62 1019.5
20260903085528 68 308 3.0 8.0 0.00 0.00 0.00 63 1019.6
20260903085025 68 285 3.0 8.0 0.00 0.00 0.00 64 1019.6
20260903084523 67 313 3.0 9.0 0.00 0.00 0.00 63 1019.6
20260903084022 67 286 2.0 7.0 0.00 0.00 0.00 65 1019.7
20260903083520 67 289 3.0 6.0 0.00 0.00 0.00 65 1019.6
20260903083019 67 289 3.0 9.0 0.00 0.00 0.00 64 1019.7
20260903082516 66 289 4.0 10.0 0.00 0.00 0.00 67 1019.7
20260903082035 66 323 1.0 6.0 0.00 0.00 0.00 67 1019.6
20260903081532 66 341 4.0 9.0 0.00 0.00 0.00 67 1019.6
20260903081031 65 310 2.0 6.0 0.00 0.00 0.00 68 1019.6
20260903080529 65 301 5.0 9.0 0.00 0.00 0.00 68 1019.6
20260903080027 65 296 4.0 7.0 0.00 0.00 0.00 69 1019.6
20260903075525 65 279 5.0 9.0 0.00 0.00 0.00 71 1019.6
20260903075023 64 279 4.0 8.0 0.00 0.00 0.00 72 1019.5
20260903074522 64 284 3.0 7.0 0.00 0.00 0.00 71 1019.5
20260903074020 64 295 3.0 7.0 0.00 0.00 0.00 73 1019.4
20260903073518 63 281 4.0 8.0 0.00 0.00 0.00 73 1019.4
20260903073048 63 284 4.0 8.0 0.00 0.00 0.00 73 1019.5
20260903073016 63 284 4.0 8.0 0.00 0.00 0.00 73 1019.5
20260903072535 63 280 2.0 7.0 0.00 0.00 0.00 74 1019.5
20260903072033 63 299 4.0 7.0 0.00 0.00 0.00 74 1019.6
20260903071531 62 299 5.0 10.0 0.00 0.00 0.00 75 1019.5
20260903071029 62 297 3.0 7.0 0.00 0.00 0.00 76 1019.5
20260903070527 62 283 3.0 7.0 0.00 0.00 0.00 77 1019.5
20260903070025 62 295 3.0 8.0 0.00 0.00 0.00 78 1019.4
20260903065523 61 270 3.0 8.0 0.00 0.00 0.00 79 1019.4
20260903065022 61 281 4.0 8.0 0.00 0.00 0.00 80 1019.5
20260903064520 61 290 3.0 9.0 0.00 0.00 0.00 80 1019.5
20260903064049 60 300 1.0 6.0 0.00 0.00 0.00 81 1019.5
20260903064018 60 300 1.0 6.0 0.00 0.00 0.00 81 1019.5
20260903063516 60 274 1.0 4.0 0.00 0.00 0.00 82 1019.5
20260903063034 60 293 1.0 4.0 0.00 0.00 0.00 82 1019.4
20260903062533 59 287 3.0 7.0 0.00 0.00 0.00 82 1019.5
20260903062030 59 280 3.0 7.0 0.00 0.00 0.00 83 1019.4
20260903061529 59 290 4.0 9.0 0.00 0.00 0.00 83 1019.5
20260903061027 59 278 3.0 7.0 0.00 0.00 0.00 84 1019.5
20260903060526 58 283 3.0 8.0 0.00 0.00 0.00 84 1019.5
20260903060023 58 280 3.0 8.0 0.00 0.00 0.00 84 1019.4
20260903055521 58 279 3.0 7.0 0.00 0.00 0.00 84 1019.4
20260903055020 57 282 3.0 6.0 0.00 0.00 0.00 84 1019.3
20260903054518 57 278 2.0 6.0 0.00 0.00 0.00 84 1019.3
20260903054048 57 281 2.0 4.0 0.00 0.00 0.00 84 1019.4
20260903054015 57 281 2.0 4.0 0.00 0.00 0.00 84 1019.4
20260903053534 57 272 3.0 6.0 0.00 0.00 0.00 84 1019.4
20260903053032 57 291 2.0 6.0 0.00 0.00 0.00 84 1019.4
20260903052530 56 291 2.0 6.0 0.00 0.00 0.00 84 1019.4
20260903052028 56 287 2.0 3.0 0.00 0.00 0.00 84 1019.4
20260903051526 56 284 3.0 7.0 0.00 0.00 0.00 84 1019.3
20260903051025 55 286 2.0 6.0 0.00 0.00 0.00 84 1019.3
20260903050523 55 278 2.0 4.0 0.00 0.00 0.00 84 1019.3
20260903050021 55 283 1.0 4.0 0.00 0.00 0.00 83 1019.4
20260903045520 54 286 1.0 3.0 0.00 0.00 0.00 83 1019.4
20260903045049 54 271 1.0 4.0 0.00 0.00 0.00 82 1019.4
20260903045017 54 271 1.0 4.0 0.00 0.00 0.00 82 1019.4
20260903044535 54 0.0 0.0 0.00 0.00 0.00 82 1019.3
20260903044034 54 0.0 0.0 0.00 0.00 0.00 82 1019.4
20260903043532 54 0.0 0.0 0.00 0.00 0.00 82 1019.4
20260903043030 54 0.0 0.0 0.00 0.00 0.00 82 1019.3
20260903042528 54 0.0 0.0 0.00 0.00 0.00 82 1019.4
20260903042026 54 0.0 0.0 0.00 0.00 0.00 81 1019.3
20260903041525 54 0.0 0.0 0.00 0.00 0.00 81 1019.3
20260903041022 54 0.0 0.0 0.00 0.00 0.00 81 1019.3
20260903040521 54 0.0 0.0 0.00 0.00 0.00 81 1019.3
20260903040019 54 0.0 0.0 0.00 0.00 0.00 81 1019.4
20260903035517 54 0.0 0.0 0.00 0.00 0.00 81 1019.4
20260903035035 54 0.0 0.0 0.00 0.00 0.00 81 1019.4
20260903034533 54 0.0 0.0 0.00 0.00 0.00 81 1019.5
20260903034031 54 0.0 0.0 0.00 0.00 0.00 81 1019.5
20260903033529 54 0.0 0.0 0.00 0.00 0.00 81 1019.4
20260903033028 54 0.0 0.0 0.00 0.00 0.00 81 1019.4
20260903032526 54 0.0 0.0 0.00 0.00 0.00 81 1019.3
20260903032024 54 0.0 0.0 0.00 0.00 0.00 81 1019.2
20260903031522 55 0.0 0.0 0.00 0.00 0.00 81 1019.4
20260903031020 55 0.0 0.0 0.00 0.00 0.00 81 1019.2
20260903030518 55 0.0 0.0 0.00 0.00 0.00 81 1019.3
20260903030049 55 0.0 0.0 0.00 0.00 0.00 81 1019.3
20260903030016 55 0.0 0.0 0.00 0.00 0.00 81 1019.3
20260903025535 55 0.0 0.0 0.00 0.00 0.00 81 1019.2
20260903025033 55 0.0 0.0 0.00 0.00 0.00 81 1019.3
20260903024531 55 0.0 0.0 0.00 0.00 0.00 81 1019.2
20260903024129 55 0.0 0.0 0.00 0.00 0.00 81 1019.3
20260903024029 55 0.0 0.0 0.00 0.00 0.00 81 1019.3
20260903023527 55 0.0 0.0 0.00 0.00 0.00 81 1019.3
20260903023025 55 0.0 0.0 0.00 0.00 0.00 81 1019.3
20260903022523 55 0.0 0.0 0.00 0.00 0.00 81 1019.4
20260903022022 55 0.0 0.0 0.00 0.00 0.00 81 1019.4
20260903021519 55 0.0 0.0 0.00 0.00 0.00 81 1019.4
20260903021132 55 0.0 0.0 0.00 0.00 0.00 81 1019.5
20260903021017 55 0.0 0.0 0.00 0.00 0.00 81 1019.5
20260903020516 56 0.0 0.0 0.00 0.00 0.00 81 1019.5
20260903020230 56 0.0 0.0 0.00 0.00 0.00 81 1019.5
20260903020034 56 0.0 0.0 0.00 0.00 0.00 81 1019.5
20260903015532 56 0.0 0.0 0.00 0.00 0.00 81 1019.5
20260903015030 56 0.0 0.0 0.00 0.00 0.00 81 1019.6
20260903014528 56 0.0 0.0 0.00 0.00 0.00 81 1019.6
20260903014026 56 0.0 0.0 0.00 0.00 0.00 81 1019.7
20260903013525 56 0.0 0.0 0.00 0.00 0.00 81 1019.6
20260903013023 56 0.0 0.0 0.00 0.00 0.00 80 1019.5
20260903012521 56 0.0 0.0 0.00 0.00 0.00 80 1019.6
20260903012019 56 0.0 0.0 0.00 0.00 0.00 80 1019.5
20260903011518 56 0.0 0.0 0.00 0.00 0.00 80 1019.6
20260903011046 56 0.0 0.0 0.00 0.00 0.00 80 1019.5
20260903011015 56 0.0 0.0 0.00 0.00 0.00 80 1019.5
20260903010534 56 0.0 0.0 0.00 0.00 0.00 80 1019.7
20260903010032 56 0.0 0.0 0.00 0.00 0.00 80 1019.6
20260903005530 56 0.0 0.0 0.00 0.00 0.00 80 1019.7
20260903005029 56 0.0 0.0 0.00 0.00 0.00 80 1019.7
20260903004526 56 0.0 0.0 0.00 0.00 0.00 80 1019.6
20260903004024 56 0.0 0.0 0.00 0.00 0.00 80 1019.6
20260903003522 56 0.0 0.0 0.00 0.00 0.00 80 1019.6
20260903003051 56 0.0 0.0 0.00 0.00 0.00 80 1019.6
20260903003020 56 0.0 0.0 0.00 0.00 0.00 80 1019.6
20260903002519 56 0.0 0.0 0.00 0.00 0.00 80 1019.6
20260903002017 56 0.0 0.0 0.00 0.00 0.00 80 1019.6
20260903001535 56 0.0 0.0 0.00 0.00 0.00 79 1019.6
20260903001033 56 0.0 0.0 0.00 0.00 0.00 79 1019.6
20260903000531 56 0.0 0.0 0.00 0.00 0.00 79 1019.7
20260903000029 56 0.0 0.0 0.00 0.00 0.00 79 1019.6
20260902235527 56 0.0 0.0 0.00 0.00 0.00 79 1019.6
20260902235025 56 0.0 0.0 0.00 0.00 0.00 79 1019.6
20260902234524 56 0.0 0.0 0.00 0.00 0.00 79 1019.7
20260902234022 56 0.0 0.0 0.00 0.00 0.00 78 1019.7
20260902233520 56 0.0 0.0 0.00 0.00 0.00 78 1019.8
20260902233049 56 0.0 0.0 0.00 0.00 0.00 78 1019.9
20260902233018 56 0.0 0.0 0.00 0.00 0.00 78 1019.9
20260902232516 57 0.0 0.0 0.00 0.00 0.00 78 1019.9
20260902232130 57 0.0 0.0 0.00 0.00 0.00 78 1019.8
20260902232035 57 0.0 0.0 0.00 0.00 0.00 78 1019.8
20260902231532 57 0.0 0.0 0.00 0.00 0.00 78 1019.8
20260902231031 57 0.0 0.0 0.00 0.00 0.00 78 1019.8
20260902230528 57 0.0 0.0 0.00 0.00 0.00 78 1019.8
20260902230027 57 0.0 0.0 0.00 0.00 0.00 78 1019.7
20260902225525 57 0.0 0.0 0.00 0.00 0.00 78 1019.8
20260902225023 57 0.0 0.0 0.00 0.00 0.00 78 1019.9
20260902224521 57 0.0 0.0 0.00 0.00 0.00 77 1019.9
20260902224020 57 0.0 0.0 0.00 0.00 0.00 77 1019.8
20260902223517 57 0.0 0.0 0.00 0.00 0.00 77 1019.9
20260902223048 58 0.0 0.0 0.00 0.00 0.00 77 1019.8
20260902223015 58 0.0 0.0 0.00 0.00 0.00 77 1019.8
20260902222534 58 0.0 0.0 0.00 0.00 0.00 77 1019.8
20260902222032 58 0.0 0.0 0.00 0.00 0.00 77 1020.0
20260902221530 58 0.0 0.0 0.00 0.00 0.00 77 1020.0
20260902221029 58 0.0 0.0 0.00 0.00 0.00 77 1020.1
20260902220526 58 0.0 0.0 0.00 0.00 0.00 77 1020.1